Weather History for KDRO - October, 2012

Change the Weather History Date:

Tuesday, October 16, 2012

  Actual Average Record
Temperature  
Mean Temperature 50 °F 47 °F  
Max Temperature 72 °F 63 °F 78 °F (1988)
Min Temperature 28 °F 31 °F 20 °F (1984)
Degree Days  
Heating Degree Days 15 18  
Month to date heating degree days 210 243  
Since 1 July heating degree days 349 467  
Cooling Degree Days 0 0  
Month to date cooling degree days 0 0  
Year to date cooling degree days 477 243  
Moisture  
Dew Point 22 °F    
Average Humidity 42    
Maximum Humidity 69    
Minimum Humidity 15    
Precipitation  
Precipitation 0.00 in 0.04 in 0.68 in (1972)
Month to date precipitation 0.10 0.79  
Year to date precipitation 5.81 12.67  
Sea Level Pressure  
Sea Level Pressure 29.90 in    
Wind  
Wind Speed 10 mph (West)    
Max Wind Speed 28 mph    
Max Gust Speed 35 mph    
Visibility 10 miles    
Events      
T = Trace of Precipitation, MM = Missing Value Source: NWS Daily Summary

Daily Weather History Graph

Daily Weather History Graph

Search for Another Location

Airport or City:

Trip Planner

Search our weather history database for the weather conditions in past years. The results will help you decide how hot, cold, wet, or windy it might be!

Date:

Astronomy

Oct. 16, 2012 Rise Set
Actual Time 7:20 AM MDT 6:32 PM MDT
Civil Twilight 6:54 AM MDT 6:58 PM MDT
Nautical Twilight 6:23 AM MDT 7:28 PM MDT
Astronomical Twilight 5:53 AM MDT 7:58 PM MDT
Moon 8:43 AM MDT (10/16) 7:22 PM MDT (10/16)
Length of Visible Light 12h 04m
Length of Day
11h 11m
New Moon, 2% of the Moon is Illuminated
Oct 16
New Moon
Oct 21
First Quarter
Oct 29
Full
Nov 6
Last Quarter
Nov 13
New

Hourly Weather History & Observations

Time (MDT) Temp. Windchill Dew Point Humidity Pressure Visibility Wind Dir Wind Speed Gust Speed Precip Events Conditions
12:53 AM 37.9 °F 34.4 °F 19.9 °F 48% 29.99 in 10.0 mi North 4.6 mph - N/A   Clear
1:53 AM 37.0 °F - 19.9 °F 50% 30.00 in 10.0 mi Calm Calm - N/A   Clear
2:53 AM 35.1 °F - 18.0 °F 50% 30.00 in 10.0 mi Calm Calm - N/A   Clear
4:53 AM 33.1 °F 30.0 °F 18.0 °F 54% 29.99 in 10.0 mi NNE 3.5 mph - N/A   Clear
6:53 AM 28.9 °F - 19.0 °F 67% 30.05 in 10.0 mi Calm Calm - N/A   Clear
7:53 AM 32.0 °F 26.4 °F 18.0 °F 56% 30.06 in 10.0 mi North 5.8 mph - N/A   Clear
8:53 AM 41.0 °F - 21.0 °F 45% 30.05 in 10.0 mi Calm Calm - N/A   Clear
9:53 AM 48.9 °F - 24.1 °F 38% 30.03 in 10.0 mi Calm Calm - N/A   Clear
10:53 AM 55.0 °F - 25.0 °F 31% 30.00 in 10.0 mi Variable 5.8 mph - N/A   Clear
11:53 AM 61.0 °F - 25.0 °F 25% 29.97 in 10.0 mi SW 3.5 mph - N/A   Clear
12:53 PM 68.0 °F - 24.1 °F 19% 29.91 in 10.0 mi WSW 16.1 mph 20.7 mph N/A   Clear
1:53 PM 69.1 °F - 24.1 °F 18% 29.86 in 10.0 mi SW 18.4 mph 24.2 mph N/A   Clear
2:53 PM 72.0 °F - 21.9 °F 15% 29.81 in 10.0 mi WSW 23.0 mph 29.9 mph N/A   Clear
3:53 PM 71.1 °F - 23.0 °F 16% 29.81 in 10.0 mi WSW 24.2 mph 32.2 mph N/A   Clear
4:53 PM 69.1 °F - 23.0 °F 18% 29.79 in 10.0 mi WSW 21.9 mph 33.4 mph N/A   Clear
5:53 PM 66.9 °F - 21.0 °F 17% 29.81 in 10.0 mi West 20.7 mph 26.5 mph N/A   Clear
6:53 PM 62.1 °F - 18.0 °F 18% 29.83 in 10.0 mi West 18.4 mph - N/A   Clear
7:53 PM 60.1 °F - 21.0 °F 22% 29.82 in 10.0 mi West 16.1 mph - N/A   Clear
8:53 PM 61.0 °F - 21.9 °F 22% 29.80 in 10.0 mi WNW 15.0 mph - N/A   Clear
9:53 PM 57.9 °F - 23.0 °F 26% 29.78 in 10.0 mi West 13.8 mph - N/A   Clear
10:53 PM 55.0 °F - 23.0 °F 29% 29.77 in 10.0 mi West 6.9 mph - N/A   Clear
11:53 PM 53.1 °F - 23.0 °F 31% 29.75 in 10.0 mi WSW 8.1 mph - N/A   Clear